Presure
128 121 140 138 141 149 172 175 127 139 134 134 121 98 137 127 141 117 143 137 146 145 134 150 108 97 129 121 127 96 140 150 90 95 95 139 92 166 191 174 161 169 176
128 130 112 139 104 143 145 148 160 160 160 130 145 143 130 130 123 149 136 148 127 137 151 120 109 114 109 124 154 95 90 91 94 94 91 90 89 151 89 89 91 99 90
124 124 134 131 121 134 141 117 142 152 159 125 139 134 137 133 130 124 149 119 134 109 120 110 104 145 112 104 118 121 97 93 90 94 94 95 97 100 101 90 98 108 160
96 125 124 131 134 140 127 134 132 145 149 165 135 117 137 124 129 130 143 132 129 144 142 137 129 135 132 130 145 134 152 135 95 94 95 93 93 95 96 97 96 166 97
129 122 128 123 130 135 135 134 135 164 149 108 113 134 133 121 141 144 130 119 119 116 115 122 121 130 103 101 151 170 97 99 97 91 94 94 98 96 96 100 75 121 100
117 127 117 131 105 128 132 133 137 129 161 143 159 104 151 137 146 138 126 135 133 128 125 125 138 109 108 108 110 95 91 93 96 97 90 94 101 99 99 98 68 103 81
170 166 132 124 177 116 136 133 112 141 128 149 131 133 118 139 95 130 126 127 140 125 145 127 139 109 103 123 104 142 106 97 102 101 76 80 94 105 134 155 100 84 118
183 168 157 165 156 160 165 153 159 116 138 139 141 100 122 143 117 115 112 113 129 112 118 130 133 120 105 111 122 109 103 113 105 123 101 95 94 99 99 158 99 154 84
165 157 163 144 135 143 159 160 162 151 132 132 137 127 133 140 106 112 117 120 138 143 122 133 128 116 128 106 117 108 124 118 112 103 101 94 97 97 169 138 78 82 102
154 168 169 158 145 151 152 160 160 162 157 130 132 105 111 139 143 142 156 163 169 163 113 148 110 123 123 121 120 103 122 108 109 106 94 78 87 79 88 175 175 83 82
114 103 171 133 158 157 153 172 160 169 156 120 125 124 148 137 142 151 143 160 154 134 124 115 138 128 114 126 127 127 122 128 110 99 90 112 157 97 128 83 98 164 144
173 184 142 159 162 156 158 121 156 146 173 153 151 157 120 132 131 170 145 146 140 134 133 139 133 131 119 106 105 121 123 124 99 96 133 114 135 101 103 82 81 75 77
93 101 165 175 170 159 160 164 156 128 158 146 160 171 162 168 115 124 160 152 153 137 135 137 111 108 106 116 122 126 122 87 127 97 84 139 173 173 164 94 78 87 131
166 180 173 164 162 171 155 154 156 161 161 121 155 160 163 163 170 119 139 161 161 109 166 143 144 143 142 85 138 130 131 77 124 127 126 131 108 148 190 186 165 154 94
201 183 157 174 166 173 170 171 163 153 149 152 153 142 158 161 159 164 148 142 126 128 123 124 129 128 183 188 182 153 182 181 116 83 128 171 183 184 190 183 95 151 127
194 196 182 125 95 99 190 146 173 171 171 165 165 170 171 153 166 173 184 181 166 106 140 128 137 134 191 189 186 133 187 136 125 167 174 176 176 160 88 184 133 107 93
169 169 190 158 161 108 94 173 166 163 180 177 167 170 169 176 174 182 185 171 169 171 172 193 137 98 100 132 196 172 171 174 188 185 174 186 92 84 90 99 187 164 132
174 183 97 94 169 161 176 166 106 111 175 102 177 179 175 181 181 180 175 157 211 200 205 151 204 202 180 173 187 170 183 187 177 145 105 110 132 177 205 105 193 179 97
160 176 139 155 144 170 173 181 103 167 173 177 122 176 152 167 171 164 185 204 193 181 182 184 202 190 189 187 75 193 113 146 162 182 80 92 95 201 89 98 208 145 205
199 180 171 186 149 183 179 167 195 182 167 189 181 104 174 102 144 104 104 124 128 129 172 119 103 196 136 130 86 192 191 86 194 95 201 146 195 204 210 199 202 195 200
229 208 185 174 170 156 98 147 190 115 198 188 125 189 160 114 204 204 119 185 181 198 97 119 203 86 93 117 83 82 78 93 84 186 194 209 197 184 176 200 174 183 188
211 224 203 190 128 174 170 191 142 164 190 206 213 215 206 207 182 183 193 180 193 185 175 198 158 198 199 181 121 92 169 83 109 205 210 200 213 173 190 178 210 202 198
195 186 175 191 188 163 188 181 133 135 176 163 142 178 174 90 203 199 199 181 151 195 192 185 137 185 135 85 102 83 79 131 199 215 177 177 179 212 195 197 175 161 162
202 205 192 158 179 123 145 181 163 159 196 196 199 192 109 84 165 201 200 86 166 182 182 167 192 197 161 187 182 118 191 191 188 191 211 197 205 217 190 176 201 181 209
214 228 237 223 179 206 195 185 86 173 86 187 83 167 174 191 190 171 124 186 194 184 90 183 200 199 209 211 203 172 205 192 205 188 187 205 214 207 211 199 187 161 180
218 196 221 138 214 215 187 169 200 149 146 159 189 180 183 172 180 110 187 134 203 195 176 120 200 216 182 195 184 200 204 212 205 207 198 220 199 201 169 192 164 162 175
Wind_Speed
31 28 28 29 27 26 31 31 23 25 24 22 21 12 21 17 20 13 20 19 21 21 19 22 9 10 17 16 18 8 19 26 7 8 9 24 12 29 40 39 36 40 44
34 32 26 31 22 28 27 26 30 30 30 26 27 25 26 25 22 22 21 21 19 20 23 15 13 15 13 18 25 10 9 9 10 11 11 12 13 32 16 17 19 21 21
35 33 34 32 26 31 30 25 29 29 32 27 29 27 27 27 24 21 23 19 22 15 18 16 14 25 16 14 15 17 13 12 12 14 15 16 17 18 19 19 23 21 38
25 36 33 34 33 34 30 30 31 31 33 38 32 26 30 27 27 27 28 26 22 27 26 25 24 24 24 23 29 24 31 26 15 17 18 18 19 20 22 20 25 36 25
41 39 40 35 36 37 36 35 34 43 36 23 25 34 32 26 31 32 27 23 24 23 21 23 24 25 17 17 33 34 18 20 20 17 20 20 24 24 25 27 14 29 30
39 43 37 45 30 40 41 39 39 36 41 36 43 21 40 34 35 33 29 32 29 28 26 27 30 22 21 22 23 17 16 18 22 24 18 24 27 28 30 30 15 29 24
56 55 47 44 53 36 45 45 34 42 38 42 37 36 29 38 17 32 31 32 36 30 37 30 34 24 21 28 25 35 28 24 28 28 9 13 27 30 40 42 32 25 36
56 56 53 53 51 50 49 49 45 35 44 43 43 25 32 42 31 29 29 29 36 26 29 35 34 31 26 29 33 29 30 34 31 39 29 30 29 32 33 48 33 45 26
62 57 58 52 43 47 50 49 48 42 45 43 45 39 41 44 27 33 36 35 45 47 33 40 35 32 34 30 36 31 36 36 36 34 33 30 34 33 51 44 26 28 35
61 64 62 58 55 53 51 51 50 49 49 45 46 31 34 47 51 42 51 51 48 48 32 43 32 37 38 39 40 31 40 37 36 34 29 17 27 21 27 50 49 30 31
42 35 65 50 59 57 55 58 54 54 51 43 44 42 58 50 53 54 52 53 54 48 41 37 46 42 38 43 43 45 43 44 39 33 30 45 53 37 46 30 40 55 49
74 74 57 63 63 59 59 43 54 48 57 54 53 58 42 50 45 57 54 56 54 53 51 54 48 47 43 38 37 43 43 46 36 34 50 36 50 43 44 36 34 31 34
29 43 65 71 68 64 62 63 58 50 57 59 60 62 59 60 41 45 56 54 58 56 57 56 39 40 38 45 50 51 51 28 54 37 34 55 58 58 60 44 33 48 54
74 73 75 74 69 70 64 62 60 62 62 50 62 64 65 63 64 43 54 59 58 33 60 63 63 63 62 28 59 59 56 26 54 57 56 61 47 49 62 62 64 64 56
71 70 53 77 73 72 73 72 68 66 65 65 65 59 68 66 64 66 57 51 55 46 52 51 54 54 65 61 61 66 62 60 50 31 63 62 63 64 64 63 56 61 64
50 61 73 47 36 35 67 61 72 73 74 73 73 73 76 66 70 72 72 72 65 36 54 60 64 62 65 66 63 50 62 52 64 64 63 65 67 63 54 65 67 61 61
73 69 65 62 63 47 29 73 74 75 76 78 76 78 76 77 76 74 76 68 69 69 69 71 68 38 45 60 63 64 66 67 66 65 67 69 51 51 58 60 68 68 67
78 65 33 33 70 71 67 65 41 38 80 37 81 81 71 81 79 76 73 64 67 72 68 59 64 65 67 67 66 61 68 68 69 61 50 57 62 63 66 63 68 68 67
65 78 56 68 61 69 74 75 42 79 78 82 48 78 57 62 72 70 71 65 70 74 74 72 63 68 69 69 33 67 47 58 69 66 50 58 61 67 62 67 65 66 64
94 85 80 65 81 72 75 82 73 79 70 81 80 39 68 41 60 47 44 52 51 55 64 54 49 71 65 62 41 71 70 49 70 59 66 69 67 67 66 65 65 65 66
94 95 88 89 84 80 37 74 83 49 83 81 68 86 61 54 71 65 48 78 79 70 45 52 69 40 39 52 48 48 46 56 55 67 69 68 69 69 72 70 71 70 68
83 89 89 88 57 91 90 81 70 65 79 85 81 76 76 65 75 75 75 68 73 76 69 73 65 76 76 74 58 51 67 54 58 73 69 68 69 75 73 73 70 71 72
80 77 72 79 88 81 77 89 58 53 81 63 60 77 72 34 81 75 73 74 62 77 77 77 64 79 58 51 60 51 44 65 71 74 73 74 76 73 78 75 76 79 80
81 81 80 65 79 41 66 82 79 70 83 90 88 83 48 34 71 74 72 42 73 78 77 65 84 84 75 70 76 71 73 74 73 77 75 75 78 76 81 78 80 82 81
83 82 83 82 78 82 85 91 30 80 29 87 32 66 70 88 84 63 57 80 84 78 51 76 88 83 89 86 80 74 79 78 77 75 78 80 79 78 81 83 84 80 85
85 77 80 46 80 80 83 89 64 44 62 64 80 77 81 85 79 49 84 69 90 88 79 62 83 90 68 80 71 80 81 81 80 83 82 82 81 82 81 86 89 86 94
Wind_Direction
232 226 236 232 232 238 245 243 233 229 227 234 233 238 231 237 240 238 247 254 256 260 259 263 257 234 268 281 281 223 274 277 260 262 272 279 294 272 267 272 279 273 272
238 235 230 239 237 238 241 240 239 242 242 235 236 233 236 236 246 249 252 256 255 264 263 259 261 268 267 269 276 233 248 265 254 269 278 283 291 286 299 299 298 293 301
239 237 245 238 238 237 241 242 240 246 245 237 237 237 238 240 251 251 257 257 259 260 258 261 256 273 259 251 265 267 233 250 270 259 268 265 267 272 277 290 282 291 274
232 244 245 247 246 247 241 244 245 245 246 247 240 247 242 246 245 246 251 246 253 261 262 265 268 274 275 275 283 269 285 281 259 264 264 274 281 281 283 293 286 279 286
239 243 246 244 249 250 249 247 245 243 248 244 246 244 246 249 250 254 250 261 256 261 262 262 267 265 251 253 286 279 252 255 259 275 273 279 273 277 281 280 315 290 283
236 239 237 244 228 248 249 246 249 240 247 247 248 247 249 248 252 251 255 257 257 255 255 259 267 264 262 265 264 261 266 266 265 266 284 281 269 275 274 277 296 281 316
245 244 242 241 253 234 248 249 236 249 245 249 247 248 250 251 247 253 256 256 263 256 267 258 266 263 257 269 260 277 258 266 262 263 295 293 277 278 296 285 276 302 283
245 245 244 247 246 247 251 245 252 245 250 252 253 246 253 256 253 253 256 256 260 262 259 263 261 260 263 264 269 266 265 267 267 285 272 272 278 276 277 291 279 284 304
247 244 247 238 245 243 246 247 248 250 250 252 254 249 253 257 259 260 259 259 261 263 258 266 260 262 265 265 268 267 273 275 273 269 268 273 274 276 286 286 297 299 299
241 248 249 245 240 244 244 250 249 250 249 255 256 252 253 258 259 258 260 265 270 271 262 268 262 264 265 261 263 267 267 274 273 276 281 304 280 294 281 287 288 294 303
243 242 247 242 246 247 245 257 251 257 251 254 253 252 252 259 259 257 258 265 265 264 263 267 269 271 267 272 273 275 280 281 272 272 278 279 286 279 287 296 289 288 290
244 243 245 248 250 248 250 248 249 258 262 250 254 253 253 260 259 267 257 259 263 268 269 268 269 274 273 268 267 274 276 279 271 274 293 296 284 280 284 301 305 298 308
253 240 249 249 252 251 252 255 252 246 255 249 261 267 265 267 252 258 267 264 264 266 269 272 268 267 266 273 276 280 285 278 286 296 284 285 285 286 286 296 304 299 295
246 245 246 247 249 251 251 251 253 257 258 249 257 262 264 264 269 257 264 267 262 259 273 270 271 272 275 277 281 282 282 299 284 288 288 290 282 292 289 288 285 286 290
239 242 244 248 249 251 254 256 257 253 252 254 256 258 259 264 261 267 269 274 267 270 272 274 275 274 287 287 286 277 285 286 279 289 287 288 288 288 289 290 287 290 292
219 234 244 247 249 257 250 252 257 259 259 260 261 264 265 265 268 272 276 276 274 263 277 274 275 275 285 287 288 276 289 280 284 287 287 287 287 290 294 289 292 289 294
240 240 234 255 253 251 247 255 256 256 258 259 261 261 263 267 270 271 272 274 277 280 280 283 271 270 278 278 285 286 286 286 289 289 287 289 288 296 289 291 287 288 290
240 232 246 243 254 255 253 252 252 253 257 252 261 262 266 266 268 271 274 276 277 281 281 277 283 283 282 282 284 287 286 287 287 285 286 285 288 291 290 293 285 286 297
233 238 234 249 246 254 251 251 254 255 257 259 257 264 262 266 270 275 276 277 278 280 280 281 281 281 282 283 288 285 285 286 285 290 304 290 291 291 299 290 288 291 288
224 233 235 221 245 249 247 250 253 256 253 255 261 255 267 260 269 268 268 272 272 272 279 274 277 281 277 279 286 282 284 289 288 288 292 289 289 292 291 289 288 288 288
223 223 227 235 239 249 252 253 252 249 261 261 255 262 268 261 271 269 270 278 279 278 276 278 283 274 277 284 280 284 298 289 295 290 293 292 290 285 287 288 290 290 290
225 222 223 227 244 241 248 246 253 254 257 258 262 262 265 261 270 271 275 274 275 276 276 280 282 282 280 281 282 288 287 296 297 295 292 291 292 287 286 288 291 289 289
227 228 232 224 223 239 236 246 258 261 264 261 262 269 266 279 268 267 266 270 271 271 273 277 279 279 287 286 280 291 299 291 293 295 282 283 284 292 287 289 288 289 290
227 224 225 235 232 236 255 241 253 262 259 260 266 267 267 271 269 268 263 278 273 273 275 280 276 276 280 289 285 285 287 289 287 289 291 288 290 288 287 285 289 289 291
226 223 223 223 233 223 226 234 272 257 274 256 271 261 268 276 275 269 272 273 271 276 285 279 274 282 280 281 286 280 289 287 290 285 286 291 290 289 288 288 289 287 287
227 230 223 234 222 217 230 245 239 253 263 257 257 262 263 265 271 279 273 269 268 272 274 287 279 277 282 280 285 286 288 286 289 291 288 292 290 289 288 287 291 293 289